BMCB-14 Weather Reports


time (UTC)temp
F
wind
direction
speed
knots
gust
knots
rain 1hr
in
rain 24hr
in
rain mn
in
humidity
%
barometer
mb
20260507002043 45 0 0.0 0.0 0.00 0.34 0.00 99 1014.6
20260507001045 45 0 0.0 0.0 0.00 0.34 0.00 99 1014.6
20260507000043 45 0 0.0 0.0 0.00 0.34 0.00 99 1014.5
20260506235047 45 0 0.0 0.0 0.00 0.34 0.00 99 1014.5
20260506234047 45 0 0.0 0.0 0.00 0.34 0.00 99 1014.5
20260506233046 45 0 0.0 0.0 0.00 0.35 0.00 99 1014.5
20260506232047 45 0 0.0 0.0 0.00 0.35 0.00 99 1014.4
20260506231047 45 0 0.0 0.0 0.00 0.35 0.00 99 1014.3
20260506230049 45 0 0.0 0.0 0.00 0.36 0.00 99 1014.3
20260506225048 45 0 0.0 0.0 0.00 0.37 0.00 99 1014.2
20260506224049 45 0 0.0 0.0 0.00 0.38 0.00 99 1014.2
20260506223048 45 0 0.0 0.0 0.00 0.39 0.00 10 1014.1
20260506222048 45 0 0.0 0.0 0.00 0.39 0.00 10 1014.0
20260506221048 45 0 0.0 0.0 0.00 0.40 0.00 10 1013.9
20260506220056 45 0 0.0 0.0 0.00 0.42 0.00 10 1013.8
20260506215055 45 0 0.0 0.0 0.00 0.43 0.42 10 1013.8
20260506214048 45 0 0.0 0.0 0.00 0.44 0.42 10 1013.7
20260506212051 44 0 0.0 0.0 0.00 0.46 0.42 10 1013.6
20260506211050 44 0 0.0 0.0 0.00 0.47 0.42 10 1013.5
20260506210050 44 0 0.0 0.0 0.00 0.48 0.42 10 1013.4
20260506205049 43 0 0.0 0.0 0.00 0.50 0.42 10 1013.3
20260506204050 43 0 0.0 0.0 0.00 0.50 0.42 10 1013.2
20260506203051 43 0 0.0 0.0 0.00 0.51 0.42 10 1013.1
20260506202050 43 0 0.0 0.0 0.00 0.52 0.42 10 1013.1
20260506201053 43 0 0.0 0.0 0.00 0.53 0.42 99 1013.0
20260506200049 43 0 0.0 0.0 0.00 0.54 0.42 99 1013.0
20260506195048 44 0 0.0 0.0 0.00 0.54 0.42 98 1012.9
20260506194049 44 0 0.0 0.0 0.00 0.55 0.42 98 1012.8
20260506193048 44 0 0.0 0.0 0.00 0.56 0.42 98 1012.7
20260506192049 45 0 0.0 0.0 0.00 0.57 0.42 98 1012.6
20260506191048 45 0 0.0 0.0 0.00 0.58 0.42 98 1012.6
20260506190052 46 0 0.0 0.0 0.00 0.59 0.42 97 1012.5
20260506185049 46 0 0.0 0.0 0.00 0.60 0.42 96 1012.3
20260506184050 47 0 0.0 0.0 0.00 0.61 0.42 95 1012.2
20260506183050 48 0 0.0 0.0 0.00 0.62 0.42 94 1012.1
20260506181046 49 0 0.0 0.0 0.00 0.63 0.42 91 1011.8
20260506180051 50 0 0.0 0.0 0.00 0.64 0.42 89 1011.7
20260506175049 51 0 0.0 0.0 0.00 0.65 0.42 87 1011.5
20260506174050 50 0 0.0 0.0 0.00 0.65 0.42 88 1011.4
20260506173048 50 0 0.0 0.0 0.00 0.66 0.42 89 1011.2
20260506172050 50 0 0.0 0.0 0.00 0.66 0.42 91 1011.2
20260506171048 50 0 0.0 0.0 0.00 0.66 0.42 92 1011.1
20260506170045 50 0 0.0 0.0 0.00 0.67 0.42 92 1011.1
20260506165046 50 0 0.0 0.0 0.00 0.67 0.42 92 1011.1
20260506164048 50 0 0.0 0.0 0.00 0.67 0.42 93 1011.0
20260506163047 50 0 0.0 0.0 0.00 0.68 0.42 94 1011.0
20260506161046 50 0 0.0 0.0 0.00 0.68 0.42 95 1011.0
20260506160046 50 0 0.0 0.0 0.00 0.68 0.42 95 1011.1
20260506154051 50 0 0.0 0.0 0.00 0.68 0.42 94 1010.9
20260506153048 50 0 0.0 0.0 0.00 0.68 0.42 93 1010.9
20260506152048 50 0 0.0 0.0 0.00 0.68 0.42 92 1010.8
20260506151049 50 0 0.0 0.0 0.00 0.68 0.42 91 1010.7
20260506150047 51 0 0.0 0.0 0.00 0.68 0.42 90 1010.6
20260506145048 51 0 0.0 0.0 0.00 0.68 0.42 89 1010.6
20260506144047 51 0 0.0 0.0 0.00 0.68 0.42 91 1010.6
20260506143048 51 0 0.0 0.0 0.00 0.68 0.42 90 1010.6
20260506142047 52 0 0.0 0.0 0.00 0.68 0.42 92 1010.6
20260506141048 51 0 0.0 0.0 0.00 0.68 0.42 92 1010.6
20260506140054 51 0 0.0 0.0 0.01 0.68 0.42 94 1010.7
20260506134048 50 0 0.0 0.0 0.01 0.69 0.42 94 1010.7
20260506131045 50 0 0.0 0.0 0.01 0.69 0.42 95 1010.7
20260506130046 50 0 0.0 0.0 0.02 0.69 0.42 94 1010.6
20260506125047 50 0 0.0 0.0 0.01 0.68 0.41 95 1010.6
20260506124047 49 0 0.0 0.0 0.01 0.68 0.41 95 1010.5
20260506123047 49 0 0.0 0.0 0.01 0.68 0.41 95 1010.5
20260506122049 49 0 0.0 0.0 0.01 0.68 0.41 97 1010.4
20260506120045 49 0 0.0 0.0 0.02 0.68 0.41 97 1010.3
20260506115049 49 0 0.0 0.0 0.01 0.67 0.40 98 1010.2
20260506114049 49 0 0.0 0.0 0.02 0.67 0.40 97 1010.2
20260506112046 50 0 0.0 0.0 0.02 0.67 0.40 98 1010.0
20260506111050 50 0 0.0 0.0 0.02 0.67 0.40 98 1010.1
20260506105046 49 0 0.0 0.0 0.02 0.66 0.39 10 1010.1
20260506104046 49 0 0.0 0.0 0.02 0.66 0.39 10 1010.1
20260506103049 49 0 0.0 0.0 0.02 0.65 0.39 10 1010.0
20260506102047 48 0 0.0 0.0 0.02 0.65 0.39 10 1010.1
20260506101045 48 0 0.0 0.0 0.02 0.65 0.38 10 1010.0
20260506100044 48 0 0.0 0.0 0.02 0.65 0.38 10 1009.9
20260506095047 47 0 0.0 0.0 0.02 0.64 0.37 10 1009.8
20260506094047 47 0 0.0 0.0 0.02 0.64 0.37 10 1009.8
20260506093046 47 0 0.0 0.0 0.03 0.64 0.37 10 1009.7
20260506092045 47 0 0.0 0.0 0.02 0.63 0.36 10 1009.7
20260506091047 47 0 0.0 0.0 0.03 0.63 0.36 10 1009.6
20260506090048 47 0 0.0 0.0 0.02 0.62 0.35 10 1009.6
20260506085048 47 0 0.0 0.0 0.03 0.62 0.35 10 1009.5
20260506084045 47 0 0.0 0.0 0.02 0.61 0.35 10 1009.4
20260506083044 46 0 0.0 0.0 0.03 0.61 0.35 10 1009.3
20260506082046 46 0 0.0 0.0 0.02 0.61 0.34 10 1009.3
20260506081046 46 0 0.0 0.0 0.02 0.61 0.34 10 1009.3
20260506073044 46 0 0.0 0.0 0.02 0.59 0.32 10 1009.0
20260506071045 46 0 0.0 0.0 0.02 0.58 0.31 10 1008.9
20260506062045 45 0 0.0 0.0 0.06 0.57 0.30 10 1008.6
20260506061044 45 0 0.0 0.0 0.06 0.56 0.29 10 1008.5
20260506051047 45 0 0.0 0.0 0.04 0.51 0.24 10 1008.6
20260506045042 45 0 0.0 0.0 0.05 0.50 0.23 10 1008.5
20260506044045 45 0 0.0 0.0 0.05 0.49 0.22 10 1008.5
20260506042044 45 0 0.0 0.0 0.06 0.48 0.21 10 1008.5
20260506041044 45 0 0.0 0.0 0.06 0.48 0.21 10 1008.4
20260506040046 45 0 0.0 0.0 0.06 0.47 0.20 10 1008.4
20260506035047 46 0 0.0 0.0 0.05 0.46 0.19 10 1008.4
20260506033047 46 0 0.0 0.0 0.04 0.44 0.17 10 1008.5
20260506032045 46 0 0.0 0.0 0.03 0.43 0.17 10 1008.5
20260506023045 46 0 0.0 0.0 0.05 0.41 0.14 10 1008.6
20260506021046 46 0 0.0 0.0 0.04 0.40 0.13 10 1008.7
20260506015046 46 0 0.0 0.0 0.03 0.39 0.12 10 1008.7
20260506014046 47 0 0.0 0.0 0.02 0.38 0.11 10 1008.8
20260506013046 47 0 0.0 0.0 0.02 0.37 0.10 10 1008.9
20260506012045 47 0 0.0 0.0 0.02 0.36 0.09 10 1008.9
20260506011045 47 0 0.0 0.0 0.02 0.36 0.09 10 1008.9
20260506010042 47 0 0.0 0.0 0.02 0.36 0.09 10 1008.9
20260506005044 47 0 0.0 0.0 0.02 0.36 0.09 10 1008.9
20260506004045 47 0 0.0 0.0 0.01 0.35 0.09 10 1009.0
20260506003044 47 0 0.0 0.0 0.02 0.35 0.09 10 1009.0